This is the latest recevied weather packets stored in our database for station/object WV5G-13. If no packets are shown the sender has not sent any weather packets the latest 10 day(s).
| Time | Temp. | Humidity | Pressure | Rain* | Wind** | Luminosity | Snow |
|---|---|---|---|---|---|---|---|
| 1777731195 | 10.56° C | 69% | 1020.4 hPa | 0 mm | - | 353 W/m² | - |
| 1777730893 | 10.56° C | 69% | 1020.2 hPa | 0 mm | - | 336 W/m² | - |
| 1777730590 | 10.56° C | 69% | 1020.4 hPa | 0 mm | - | 319 W/m² | - |
| 1777730286 | 10° C | 70% | 1020.2 hPa | 0 mm | - | 301 W/m² | - |
| 1777729983 | 10° C | 72% | 1020.2 hPa | 0 mm | - | 280 W/m² | - |
| 1777729678 | 10° C | 73% | 1020.2 hPa | 0 mm | - | 261 W/m² | - |
| 1777729376 | 9.44° C | 74% | 1020.2 hPa | 0 mm | - | 244 W/m² | - |
| 1777729072 | 8.89° C | 75% | 1020 hPa | 0 mm | - | 228 W/m² | - |
| 1777728769 | 8.89° C | 77% | 1020 hPa | 0 mm | - | 203 W/m² | - |
| 1777728465 | 7.78° C | 79% | 1020 hPa | 0 mm | - | 181 W/m² | - |
| 1777728163 | 7.78° C | 81% | 1020 hPa | 0 mm | - | 170 W/m² | - |
| 1777727860 | 7.22° C | 83% | 1020 hPa | 0 mm | - | 154 W/m² | - |
| 1777727557 | 6.67° C | 85% | 1020.2 hPa | 0 mm | - | 136 W/m² | - |
| 1777727254 | 6.11° C | 86% | 1019.9 hPa | 0 mm | - | 124 W/m² | - |
| 1777726952 | 5.56° C | 87% | 1020 hPa | 0 mm | - | 107 W/m² | - |
| 1777726648 | 5.56° C | 87% | 1020 hPa | 0 mm | - | 95 W/m² | - |
| 1777726346 | 4.44° C | 87% | 1019.8 hPa | 0 mm | - | 86 W/m² | - |
| 1777726042 | 3.89° C | 86% | 1019.7 hPa | 0 mm | - | 72 W/m² | - |
| 1777725739 | 5.56° C | 85% | 1019.7 hPa | 0 mm | - | 63 W/m² | - |
| 1777725438 | 5.56° C | 85% | 1019.6 hPa | 0 mm | - | 54 W/m² | - |
| 1777725134 | 5° C | 86% | 1019.5 hPa | 0 mm | - | 46 W/m² | - |
| 1777724831 | 5° C | 86% | 1019.6 hPa | 0 mm | - | 38 W/m² | - |
| 1777724527 | 5° C | 87% | 1019.5 hPa | 0 mm | - | 31 W/m² | - |
| 1777724226 | 4.44° C | 88% | 1019.4 hPa | 0 mm | - | 24 W/m² | - |
| 1777723923 | 4.44° C | 88% | 1019.4 hPa | 0 mm | - | 18 W/m² | - |
* Rain latest hour (hover to see other rain measurements)
** Current wind speed in m/s (hover to see current wind gust speed)